Find Starlink 11515

NORAD ID: 62556 Int'l Des: 2025-006 Owner: SPXS Country: US Constellation: starlink operational
別名: STARLINK-11515 [DTC] celestrak
LEOCIRCULAR

現在のビュー

3D地球を読み込み中...

About Starlink 11515

Starlink 11515 (NORAD 62556) is a starlink constellation satellite (v2 mini d2c) launched Jan 10, 2025 by SPXS of US. It operates in LEO, CIRCULAR orbit with a mass of 960.00 kg.

次回通過

Passes for default location (London). Set your location on the main map for personalized predictions.

高度履歴

Loading altitude history...

軌道要素

1 62556U 25006C 26262.58480056 .00075505 00000-0 58419-3 0 9993
2 62556 42.9998 51.4699 0001801 268.1381 91.9280 15.70937420 97092
Epoch: Sep 19, 2026 • Age: 32 hours

現在のステータス

高度 355.6 km
遠地点 / 近地点 N/A
速度 7.70 km/s
衛星直下点 21.10°N, 94.7°E
打ち上げ日 Jan 10, 2025
運用期間 1.6 years
タイプ internet

技術仕様

分類 Payload
質量 960.00 kg
乾燥質量 910.00 kg
長さ 0.30 m
スパン 29.00 m
形状 ? Box + pan
製造者 SPXS
バスタイプ Starlink V2MD
フェーズステータス In Orbit
所有者/国 SPXS/US

Most Searched